Starlink 30110

decayed
NORAD ID: 57474 Int'l Des: 2023-107 Owner: SPXS Country: US Constellation: starlink
LEOCIRCULAR
グループ

Starlink 30110について

説明を読み込み中...

高度履歴

Altitude vs Time

uPlot chart will show altitude changes over time

軌道要素

1 57474U 23107T 26036.40392421 .07254328 89620-5 11140-2 0 9992
2 57474 42.9655 51.3486 0016028 147.9782 212.2085 16.32642481141454
Epoch: Feb 5, 2026 • Age: 893 hours

現在のステータス

Position data unavailable
打ち上げ日 Jul 28, 2023
運用期間 2.6 years
落下予定日 Feb 5, 2026
タイプ internet

技術仕様

分類 Payload
質量 730.00 kg
乾燥質量 700.00 kg
総質量 730.00 kg
長さ 0.30 m
直径 4.10 m
スパン 29.00 m
形状 Box + pan
製造者 SPXS
バスタイプ Starlink V2M
フェーズステータス Unknown Transfer Status
所有者/国 SPXS/US

大規模コンステレーション

Loading constellations...